Time,TemperatureF,DewpointF,PressureIn,WindDirection,WindDirectionDegrees,WindSpeedMPH,WindSpeedGustMPH,Humidity,HourlyPrecipIn,Conditions,Clouds,dailyrainin,SoftwareType,DateUTC
2017-07-25 00:05:00,83.1,75.9,30.10,SE,146,0.0,0.0,79,0.00,,,0.00,Wunderground PWS Mod,2017-07-25 04:05:00,
2017-07-25 00:10:00,83.1,75.9,30.10,SSE,147,0.0,0.0,79,0.00,,,0.00,Wunderground PWS Mod,2017-07-25 04:10:00,
2017-07-25 00:15:00,83.1,75.9,30.10,SE,146,0.0,0.0,79,0.00,,,0.00,Wunderground PWS Mod,2017-07-25 04:15:00,
2017-07-25 00:25:00,83.0,75.8,30.10,SE,146,0.0,0.0,79,0.00,,,0.00,Wunderground PWS Mod,2017-07-25 04:25:00,
2017-07-25 00:35:00,82.8,75.2,30.10,SE,146,0.0,0.0,78,0.00,,,0.00,Wunderground PWS Mod,2017-07-25 04:35:00,
2017-07-25 00:40:00,82.8,75.2,30.10,SE,146,0.0,0.0,78,0.00,,,0.00,Wunderground PWS Mod,2017-07-25 04:40:00,
2017-07-25 00:50:00,82.8,75.6,30.11,SE,146,0.0,0.0,79,0.00,,,0.00,Wunderground PWS Mod,2017-07-25 04:50:00,
2017-07-25 00:55:00,82.7,75.5,30.11,SE,146,0.0,0.0,79,0.00,,,0.00,Wunderground PWS Mod,2017-07-25 04:55:00,
2017-07-25 01:05:00,82.7,75.5,30.10,SE,146,0.0,0.0,79,0.00,,,0.00,Wunderground PWS Mod,2017-07-25 05:05:00,
2017-07-25 01:10:00,82.6,75.4,30.10,SE,146,0.0,0.0,79,0.00,,,0.00,Wunderground PWS Mod,2017-07-25 05:10:00,
2017-07-25 01:20:00,82.5,75.3,30.11,SE,146,0.0,0.0,79,0.00,,,0.00,Wunderground PWS Mod,2017-07-25 05:20:00,
2017-07-25 01:25:00,82.4,75.2,30.11,SE,146,0.0,0.0,79,0.00,,,0.00,Wunderground PWS Mod,2017-07-25 05:25:00,
2017-07-25 01:35:00,82.3,75.1,30.10,SE,146,0.0,0.0,79,0.00,,,0.00,Wunderground PWS Mod,2017-07-25 05:35:00,
2017-07-25 01:45:00,82.1,74.9,30.10,SE,146,0.0,0.0,79,0.00,,,0.00,Wunderground PWS Mod,2017-07-25 05:45:00,
2017-07-25 01:55:00,81.9,74.7,30.09,SE,146,0.0,0.0,79,0.00,,,0.00,Wunderground PWS Mod,2017-07-25 05:55:00,
2017-07-25 02:00:00,81.8,75.0,30.09,SE,146,0.0,0.0,80,0.00,,,0.00,Wunderground PWS Mod,2017-07-25 06:00:00,
2017-07-25 02:20:00,81.5,74.7,30.08,SE,146,0.0,0.0,80,0.00,,,0.00,Wunderground PWS Mod,2017-07-25 06:20:00,
2017-07-25 02:25:00,81.4,74.6,30.08,SE,146,0.0,0.0,80,0.00,,,0.00,Wunderground PWS Mod,2017-07-25 06:25:00,
2017-07-25 02:35:00,81.2,74.4,30.07,SE,146,0.0,0.0,80,0.00,,,0.00,Wunderground PWS Mod,2017-07-25 06:35:00,
2017-07-25 02:40:00,81.2,74.8,30.07,SE,146,0.0,0.0,81,0.00,,,0.00,Wunderground PWS Mod,2017-07-25 06:40:00,
2017-07-25 02:45:00,81.1,74.7,30.07,SE,146,0.0,0.0,81,0.00,,,0.00,Wunderground PWS Mod,2017-07-25 06:45:00,
2017-07-25 02:55:00,81.0,74.6,30.08,SE,146,0.0,0.0,81,0.00,,,0.00,Wunderground PWS Mod,2017-07-25 06:55:00,
2017-07-25 03:05:00,80.9,74.9,30.07,SE,146,0.0,0.0,82,0.00,,,0.00,Wunderground PWS Mod,2017-07-25 07:05:00,
2017-07-25 03:15:00,80.9,74.9,30.07,SE,146,0.0,0.0,82,0.00,,,0.00,Wunderground PWS Mod,2017-07-25 07:15:00,
2017-07-25 03:20:00,80.9,74.9,30.07,SE,146,0.0,0.0,82,0.00,,,0.00,Wunderground PWS Mod,2017-07-25 07:20:00,
2017-07-25 03:25:00,80.9,74.9,30.07,SE,146,0.0,0.0,82,0.00,,,0.00,Wunderground PWS Mod,2017-07-25 07:25:00,
2017-07-25 03:35:00,80.9,74.9,30.07,SE,146,0.0,0.0,82,0.00,,,0.00,Wunderground PWS Mod,2017-07-25 07:35:00,
2017-07-25 03:45:00,80.8,74.8,30.07,SE,146,0.0,0.0,82,0.00,,,0.00,Wunderground PWS Mod,2017-07-25 07:45:00,
2017-07-25 03:50:00,80.8,74.8,30.06,SE,146,0.0,0.0,82,0.00,,,0.00,Wunderground PWS Mod,2017-07-25 07:50:00,
2017-07-25 03:55:00,80.7,74.7,30.06,SE,146,0.0,0.0,82,0.00,,,0.00,Wunderground PWS Mod,2017-07-25 07:55:00,
2017-07-25 04:05:00,80.7,74.7,30.07,SE,146,0.0,0.0,82,0.00,,,0.00,Wunderground PWS Mod,2017-07-25 08:05:00,
2017-07-25 04:10:00,80.7,74.7,30.07,SE,146,0.0,0.0,82,0.00,,,0.00,Wunderground PWS Mod,2017-07-25 08:10:00,
2017-07-25 04:20:00,80.7,75.1,30.06,SE,146,0.0,0.0,83,0.00,,,0.00,Wunderground PWS Mod,2017-07-25 08:20:00,
2017-07-25 04:25:00,80.7,75.1,30.06,SE,146,0.0,0.0,83,0.00,,,0.00,Wunderground PWS Mod,2017-07-25 08:25:00,
2017-07-25 04:35:00,80.7,75.1,30.06,SE,146,0.0,0.0,83,0.00,,,0.00,Wunderground PWS Mod,2017-07-25 08:35:00,
2017-07-25 04:45:00,80.6,75.0,30.06,SE,146,0.0,0.0,83,0.00,,,0.00,Wunderground PWS Mod,2017-07-25 08:45:00,
2017-07-25 04:50:00,80.6,75.3,30.07,SE,146,0.0,0.0,84,0.00,,,0.00,Wunderground PWS Mod,2017-07-25 08:50:00,
2017-07-25 04:55:00,80.6,75.3,30.07,SE,146,0.0,0.0,84,0.00,,,0.00,Wunderground PWS Mod,2017-07-25 08:55:00,
2017-07-25 05:05:00,80.5,75.2,30.07,SE,146,0.0,0.0,84,0.00,,,0.00,Wunderground PWS Mod,2017-07-25 09:05:00,
2017-07-25 05:15:00,80.6,75.3,30.07,SE,146,0.0,0.0,84,0.00,,,0.00,Wunderground PWS Mod,2017-07-25 09:15:00,
2017-07-25 05:25:00,80.4,75.1,30.08,SE,146,0.0,0.0,84,0.00,,,0.00,Wunderground PWS Mod,2017-07-25 09:25:00,
2017-07-25 05:30:00,80.4,75.1,30.08,SE,146,0.0,0.0,84,0.00,,,0.00,Wunderground PWS Mod,2017-07-25 09:30:00,
2017-07-25 05:40:00,80.2,74.9,30.08,SE,146,0.0,0.0,84,0.00,,,0.00,Wunderground PWS Mod,2017-07-25 09:40:00,
2017-07-25 05:45:00,80.2,74.9,30.08,SE,146,0.0,0.0,84,0.00,,,0.00,Wunderground PWS Mod,2017-07-25 09:45:00,
2017-07-25 05:55:00,80.1,75.2,30.08,SE,146,0.0,0.0,85,0.00,,,0.00,Wunderground PWS Mod,2017-07-25 09:55:00,
2017-07-25 06:05:00,80.0,75.1,30.09,SE,146,0.0,0.0,85,0.00,,,0.00,Wunderground PWS Mod,2017-07-25 10:05:00,
2017-07-25 06:10:00,79.9,75.0,30.09,SE,146,0.0,0.0,85,0.00,,,0.00,Wunderground PWS Mod,2017-07-25 10:10:00,
2017-07-25 06:20:00,79.8,74.9,30.09,SE,146,0.0,0.0,85,0.00,,,0.00,Wunderground PWS Mod,2017-07-25 10:20:00,
2017-07-25 06:25:00,79.7,74.8,30.09,SE,146,0.0,0.0,85,0.00,,,0.00,Wunderground PWS Mod,2017-07-25 10:25:00,
2017-07-25 06:35:00,79.6,74.7,30.09,SE,146,0.0,0.0,85,0.00,,,0.00,Wunderground PWS Mod,2017-07-25 10:35:00,
2017-07-25 06:45:00,79.5,74.6,30.09,SE,146,0.0,0.0,85,0.00,,,0.00,Wunderground PWS Mod,2017-07-25 10:45:00,
2017-07-25 06:50:00,79.4,74.5,30.09,SE,146,0.0,0.0,85,0.00,,,0.00,Wunderground PWS Mod,2017-07-25 10:50:00,
2017-07-25 07:00:00,79.3,74.7,30.09,SE,146,0.0,0.0,86,0.00,,,0.00,Wunderground PWS Mod,2017-07-25 11:00:00,
2017-07-25 07:05:00,79.2,74.6,30.10,SE,146,0.0,0.0,86,0.00,,,0.00,Wunderground PWS Mod,2017-07-25 11:05:00,
2017-07-25 07:15:00,79.2,74.6,30.10,SE,146,0.0,0.0,86,0.00,,,0.00,Wunderground PWS Mod,2017-07-25 11:15:00,
2017-07-25 07:25:00,79.2,75.0,30.10,SE,146,0.0,0.0,87,0.00,,,0.00,Wunderground PWS Mod,2017-07-25 11:25:00,
2017-07-25 07:35:00,79.2,75.0,30.10,SE,146,0.0,0.0,87,0.00,,,0.00,Wunderground PWS Mod,2017-07-25 11:35:00,
2017-07-25 07:40:00,79.1,74.9,30.10,SE,146,0.0,0.0,87,0.00,,,0.00,Wunderground PWS Mod,2017-07-25 11:40:00,
2017-07-25 07:45:00,79.1,74.9,30.10,SE,146,0.0,0.0,87,0.00,,,0.00,Wunderground PWS Mod,2017-07-25 11:45:00,
2017-07-25 07:55:00,79.1,74.9,30.11,SE,146,0.0,0.0,87,0.00,,,0.00,Wunderground PWS Mod,2017-07-25 11:55:00,
2017-07-25 08:00:00,79.3,75.4,30.11,SE,146,0.0,0.0,88,0.00,,,0.00,Wunderground PWS Mod,2017-07-25 12:00:00,
2017-07-25 08:10:00,79.5,75.6,30.11,SE,146,0.0,0.0,88,0.00,,,0.00,Wunderground PWS Mod,2017-07-25 12:10:00,
2017-07-25 08:15:00,79.6,75.7,30.11,SE,146,0.0,0.0,88,0.00,,,0.00,Wunderground PWS Mod,2017-07-25 12:15:00,
2017-07-25 08:25:00,79.9,76.0,30.11,SE,146,0.0,0.0,88,0.00,,,0.00,Wunderground PWS Mod,2017-07-25 12:25:00,
2017-07-25 08:35:00,80.2,76.3,30.12,SE,146,0.0,0.0,88,0.00,,,0.00,Wunderground PWS Mod,2017-07-25 12:35:00,
2017-07-25 08:40:00,80.3,76.4,30.12,SE,146,0.0,0.0,88,0.00,,,0.00,Wunderground PWS Mod,2017-07-25 12:40:00,
2017-07-25 08:45:00,80.5,76.6,30.12,SE,146,0.0,0.0,88,0.00,,,0.00,Wunderground PWS Mod,2017-07-25 12:45:00,
2017-07-25 08:55:00,81.0,77.1,30.11,SE,146,0.0,0.0,88,0.00,,,0.00,Wunderground PWS Mod,2017-07-25 12:55:00,
2017-07-25 09:05:00,81.6,77.4,30.12,SE,146,0.0,0.0,87,0.00,,,0.00,Wunderground PWS Mod,2017-07-25 13:05:00,
2017-07-25 09:10:00,82.0,77.4,30.12,SE,146,0.0,0.0,86,0.00,,,0.00,Wunderground PWS Mod,2017-07-25 13:10:00,
2017-07-25 09:20:00,82.6,77.3,30.12,SE,146,0.0,0.0,84,0.00,,,0.00,Wunderground PWS Mod,2017-07-25 13:20:00,
2017-07-25 09:25:00,83.5,77.8,30.12,SE,146,0.0,0.0,83,0.00,,,0.00,Wunderground PWS Mod,2017-07-25 13:25:00,
2017-07-25 09:35:00,84.4,77.6,30.12,SE,146,0.0,0.0,80,0.00,,,0.00,Wunderground PWS Mod,2017-07-25 13:35:00,
2017-07-25 09:40:00,84.8,77.2,30.12,SE,146,0.0,0.0,78,0.00,,,0.00,Wunderground PWS Mod,2017-07-25 13:40:00,
2017-07-25 09:45:00,85.0,77.0,30.12,SE,146,0.0,0.0,77,0.00,,,0.00,Wunderground PWS Mod,2017-07-25 13:45:00,
2017-07-25 09:55:00,85.7,76.5,30.12,SE,146,0.0,0.0,74,0.00,,,0.00,Wunderground PWS Mod,2017-07-25 13:55:00,
2017-07-25 10:05:00,86.6,77.3,30.13,SSE,147,0.0,6.0,74,0.00,,,0.00,Wunderground PWS Mod,2017-07-25 14:05:00,
2017-07-25 10:15:00,87.2,77.5,30.13,SE,146,0.0,7.0,73,0.00,,,0.00,Wunderground PWS Mod,2017-07-25 14:15:00,
2017-07-25 10:25:00,87.5,77.8,30.13,SE,141,0.0,1.0,73,0.00,,,0.00,Wunderground PWS Mod,2017-07-25 14:25:00,
2017-07-25 10:30:00,87.8,78.1,30.13,SE,141,0.0,1.0,73,0.00,,,0.00,Wunderground PWS Mod,2017-07-25 14:30:00,
2017-07-25 10:35:00,87.8,77.2,30.13,SE,141,0.0,1.0,71,0.00,,,0.00,Wunderground PWS Mod,2017-07-25 14:35:00,
2017-07-25 10:45:00,88.3,77.7,30.13,SE,141,0.0,6.0,71,0.00,,,0.00,Wunderground PWS Mod,2017-07-25 14:45:00,
2017-07-25 10:50:00,88.3,77.3,30.13,SE,141,0.0,0.0,70,0.00,,,0.00,Wunderground PWS Mod,2017-07-25 14:50:00,
2017-07-25 11:00:00,88.9,77.8,30.13,SE,141,0.0,0.0,70,0.00,,,0.00,Wunderground PWS Mod,2017-07-25 15:00:00,
2017-07-25 11:05:00,89.2,78.1,30.13,SE,140,0.0,0.0,70,0.00,,,0.00,Wunderground PWS Mod,2017-07-25 15:05:00,
2017-07-25 11:15:00,89.6,78.5,30.13,SE,139,0.0,6.0,70,0.00,,,0.00,Wunderground PWS Mod,2017-07-25 15:15:00,
2017-07-25 11:25:00,89.5,78.4,30.13,SE,139,0.0,0.0,70,0.00,,,0.00,Wunderground PWS Mod,2017-07-25 15:25:00,
2017-07-25 11:30:00,89.9,78.8,30.13,SE,135,0.0,0.0,70,0.00,,,0.00,Wunderground PWS Mod,2017-07-25 15:30:00,
2017-07-25 11:35:00,90.5,78.9,30.14,SE,135,0.0,0.0,69,0.00,,,0.00,Wunderground PWS Mod,2017-07-25 15:35:00,
2017-07-25 11:45:00,90.3,78.7,30.14,SE,134,1.0,1.0,69,0.00,,,0.00,Wunderground PWS Mod,2017-07-25 15:45:00,
2017-07-25 11:55:00,90.5,78.5,30.13,SE,134,0.0,0.0,68,0.00,,,0.00,Wunderground PWS Mod,2017-07-25 15:55:00,
2017-07-25 12:05:00,90.8,78.8,30.13,SE,133,1.0,1.0,68,0.00,,,0.00,Wunderground PWS Mod,2017-07-25 16:05:00,
2017-07-25 12:10:00,90.3,78.3,30.13,SE,132,1.0,1.0,68,0.00,,,0.00,Wunderground PWS Mod,2017-07-25 16:10:00,
2017-07-25 12:15:00,90.3,78.3,30.13,SE,129,1.0,1.0,68,0.00,,,0.00,Wunderground PWS Mod,2017-07-25 16:15:00,
2017-07-25 12:25:00,91.2,79.2,30.13,SE,129,0.0,5.0,68,0.00,,,0.00,Wunderground PWS Mod,2017-07-25 16:25:00,
2017-07-25 12:35:00,91.7,78.7,30.13,SE,128,2.0,2.0,66,0.00,,,0.00,Wunderground PWS Mod,2017-07-25 16:35:00,
2017-07-25 12:40:00,91.6,78.2,30.13,ESE,121,2.0,2.0,65,0.00,,,0.00,Wunderground PWS Mod,2017-07-25 16:40:00,
2017-07-25 12:50:00,91.5,79.4,30.12,ESE,122,2.0,2.0,68,0.00,,,0.00,Wunderground PWS Mod,2017-07-25 16:50:00,
2017-07-25 12:55:00,92.1,79.1,30.12,ESE,117,1.0,1.0,66,0.00,,,0.00,Wunderground PWS Mod,2017-07-25 16:55:00,
2017-07-25 13:05:00,92.2,78.7,30.12,ESE,120,1.0,1.0,65,0.00,,,0.00,Wunderground PWS Mod,2017-07-25 17:05:00,
2017-07-25 13:15:00,92.5,79.0,30.12,ESE,117,1.0,1.0,65,0.00,,,0.00,Wunderground PWS Mod,2017-07-25 17:15:00,
2017-07-25 13:25:00,92.4,78.4,30.11,ESE,123,1.0,9.0,64,0.00,,,0.00,Wunderground PWS Mod,2017-07-25 17:25:00,
2017-07-25 13:30:00,91.9,78.4,30.11,ESE,123,2.0,2.0,65,0.00,,,0.00,Wunderground PWS Mod,2017-07-25 17:30:00,
2017-07-25 13:35:00,91.9,78.4,30.11,SE,124,1.0,11.0,65,0.00,,,0.00,Wunderground PWS Mod,2017-07-25 17:35:00,
2017-07-25 13:45:00,92.5,79.0,30.11,ESE,113,1.0,1.0,65,0.00,,,0.00,Wunderground PWS Mod,2017-07-25 17:45:00,
2017-07-25 13:55:00,93.7,78.7,30.11,ESE,112,0.0,7.0,62,0.00,,,0.00,Wunderground PWS Mod,2017-07-25 17:55:00,
2017-07-25 14:00:00,93.4,78.4,30.11,SE,133,1.0,7.0,62,0.00,,,0.00,Wunderground PWS Mod,2017-07-25 18:00:00,
2017-07-25 14:10:00,94.3,79.3,30.10,SE,124,1.0,1.0,62,0.00,,,0.00,Wunderground PWS Mod,2017-07-25 18:10:00,
2017-07-25 14:15:00,94.1,79.1,30.10,ESE,122,1.0,1.0,62,0.00,,,0.00,Wunderground PWS Mod,2017-07-25 18:15:00,
2017-07-25 14:25:00,93.4,78.9,30.11,SE,124,1.0,1.0,63,0.00,,,0.00,Wunderground PWS Mod,2017-07-25 18:25:00,
2017-07-25 14:35:00,94.2,79.2,30.11,ESE,120,1.0,1.0,62,0.00,,,0.00,Wunderground PWS Mod,2017-07-25 18:35:00,
2017-07-25 14:45:00,93.7,78.7,30.11,SE,129,1.0,1.0,62,0.00,,,0.00,Wunderground PWS Mod,2017-07-25 18:45:00,
2017-07-25 14:50:00,93.3,78.8,30.10,ESE,121,0.0,10.0,63,0.00,,,0.00,Wunderground PWS Mod,2017-07-25 18:50:00,
2017-07-25 15:00:00,93.9,78.4,30.10,ESE,117,0.0,0.0,61,0.00,,,0.00,Wunderground PWS Mod,2017-07-25 19:00:00,
2017-07-25 15:05:00,94.3,78.8,30.11,ESE,118,0.0,0.0,61,0.00,,,0.00,Wunderground PWS Mod,2017-07-25 19:05:00,
2017-07-25 15:15:00,94.5,78.5,30.11,ESE,119,1.0,1.0,60,0.00,,,0.00,Wunderground PWS Mod,2017-07-25 19:15:00,
2017-07-25 15:25:00,94.2,77.7,30.10,ESE,118,1.0,1.0,59,0.00,,,0.00,Wunderground PWS Mod,2017-07-25 19:25:00,
2017-07-25 15:35:00,94.9,77.3,30.10,ESE,120,0.0,11.0,57,0.00,,,0.00,Wunderground PWS Mod,2017-07-25 19:35:00,
2017-07-25 15:45:00,96.0,78.3,30.10,ESE,120,0.0,1.0,57,0.00,,,0.00,Wunderground PWS Mod,2017-07-25 19:45:00,
2017-07-25 15:50:00,94.9,77.3,30.11,ESE,117,1.0,1.0,57,0.00,,,0.00,Wunderground PWS Mod,2017-07-25 19:50:00,
2017-07-25 15:55:00,94.7,77.6,30.11,ESE,120,1.0,6.0,58,0.00,,,0.00,Wunderground PWS Mod,2017-07-25 19:55:00,
2017-07-25 16:05:00,94.8,76.7,30.10,ESE,120,0.0,6.0,56,0.00,,,0.00,Wunderground PWS Mod,2017-07-25 20:05:00,
2017-07-25 16:15:00,93.6,77.1,30.10,ESE,119,1.0,1.0,59,0.00,,,0.00,Wunderground PWS Mod,2017-07-25 20:15:00,
2017-07-25 16:20:00,93.8,76.8,30.10,SE,132,1.0,1.0,58,0.00,,,0.00,Wunderground PWS Mod,2017-07-25 20:20:00,
2017-07-25 16:30:00,92.4,76.0,30.10,SE,131,1.0,1.0,59,0.00,,,0.00,Wunderground PWS Mod,2017-07-25 20:30:00,
2017-07-25 16:35:00,92.8,77.4,30.09,SE,131,0.0,9.0,61,0.00,,,0.00,Wunderground PWS Mod,2017-07-25 20:35:00,
2017-07-25 16:45:00,93.8,77.3,30.09,SE,125,1.0,1.0,59,0.00,,,0.00,Wunderground PWS Mod,2017-07-25 20:45:00,
2017-07-25 16:55:00,91.6,76.2,30.09,ESE,122,2.0,2.0,61,0.00,,,0.00,Wunderground PWS Mod,2017-07-25 20:55:00,
2017-07-25 17:00:00,91.5,76.6,30.09,SE,132,1.0,1.0,62,0.00,,,0.00,Wunderground PWS Mod,2017-07-25 21:00:00,
2017-07-25 17:10:00,91.7,76.3,30.09,SE,128,0.0,5.0,61,0.00,,,0.00,Wunderground PWS Mod,2017-07-25 21:10:00,
2017-07-25 17:15:00,90.4,76.1,30.09,ESE,122,1.0,1.0,63,0.00,,,0.00,Wunderground PWS Mod,2017-07-25 21:15:00,
2017-07-25 17:25:00,89.9,76.1,30.08,ESE,120,1.0,1.0,64,0.00,,,0.00,Wunderground PWS Mod,2017-07-25 21:25:00,
2017-07-25 17:35:00,89.9,76.6,30.08,ESE,123,0.0,8.0,65,0.00,,,0.00,Wunderground PWS Mod,2017-07-25 21:35:00,
2017-07-25 17:40:00,90.0,76.6,30.08,SE,124,0.0,0.0,65,0.00,,,0.00,Wunderground PWS Mod,2017-07-25 21:40:00,
2017-07-25 17:45:00,89.8,76.5,30.08,SE,126,0.0,0.0,65,0.00,,,0.00,Wunderground PWS Mod,2017-07-25 21:45:00,
2017-07-25 17:55:00,89.2,76.4,30.07,SE,124,1.0,1.0,66,0.00,,,0.00,Wunderground PWS Mod,2017-07-25 21:55:00,
2017-07-25 18:05:00,88.8,76.9,30.08,SE,124,0.0,9.0,68,0.00,,,0.00,Wunderground PWS Mod,2017-07-25 22:05:00,
2017-07-25 18:10:00,88.7,77.2,30.08,SE,124,0.0,7.0,69,0.00,,,0.00,Wunderground PWS Mod,2017-07-25 22:10:00,
2017-07-25 18:15:00,88.6,76.7,30.08,SE,124,0.0,7.0,68,0.00,,,0.00,Wunderground PWS Mod,2017-07-25 22:15:00,
2017-07-25 18:25:00,88.5,77.0,30.07,SE,124,0.0,0.0,69,0.00,,,0.00,Wunderground PWS Mod,2017-07-25 22:25:00,
2017-07-25 18:35:00,88.6,77.1,30.07,SE,124,0.0,0.0,69,0.00,,,0.00,Wunderground PWS Mod,2017-07-25 22:35:00,
2017-07-25 18:40:00,88.6,77.1,30.07,SE,124,0.0,0.0,69,0.00,,,0.00,Wunderground PWS Mod,2017-07-25 22:40:00,
2017-07-25 18:50:00,88.0,77.4,30.08,SE,124,0.0,0.0,71,0.00,,,0.00,Wunderground PWS Mod,2017-07-25 22:50:00,
2017-07-25 18:55:00,87.9,77.3,30.08,SE,124,0.0,0.0,71,0.00,,,0.00,Wunderground PWS Mod,2017-07-25 22:55:00,
2017-07-25 19:05:00,87.6,77.5,30.07,SE,124,0.0,0.0,72,0.00,,,0.00,Wunderground PWS Mod,2017-07-25 23:05:00,
2017-07-25 19:10:00,87.3,77.2,30.07,SE,124,0.0,0.0,72,0.00,,,0.00,Wunderground PWS Mod,2017-07-25 23:10:00,
2017-07-25 19:15:00,87.2,77.5,30.07,SE,124,0.0,0.0,73,0.00,,,0.00,Wunderground PWS Mod,2017-07-25 23:15:00,
2017-07-25 19:25:00,87.1,77.4,30.07,SE,124,0.0,0.0,73,0.00,,,0.00,Wunderground PWS Mod,2017-07-25 23:25:00,
2017-07-25 19:35:00,86.9,77.2,30.08,SE,124,0.0,0.0,73,0.00,,,0.00,Wunderground PWS Mod,2017-07-25 23:35:00,
2017-07-25 19:40:00,86.8,77.5,30.08,SE,124,0.0,0.0,74,0.00,,,0.00,Wunderground PWS Mod,2017-07-25 23:40:00,
2017-07-25 19:50:00,86.4,76.7,30.08,SE,124,0.0,0.0,73,0.00,,,0.00,Wunderground PWS Mod,2017-07-25 23:50:00,
2017-07-25 19:55:00,86.1,76.4,30.08,SE,124,0.0,0.0,73,0.00,,,0.00,Wunderground PWS Mod,2017-07-25 23:55:00,
2017-07-25 20:05:00,85.7,76.0,30.08,SE,124,0.0,0.0,73,0.00,,,0.00,Wunderground PWS Mod,2017-07-26 00:05:00,
2017-07-25 20:15:00,85.4,75.3,30.08,SE,124,0.0,0.0,72,0.00,,,0.00,Wunderground PWS Mod,2017-07-26 00:15:00,
2017-07-25 20:20:00,85.4,75.3,30.08,ESE,123,0.0,0.0,72,0.00,,,0.00,Wunderground PWS Mod,2017-07-26 00:20:00,
2017-07-25 20:25:00,85.4,75.3,30.08,ESE,123,0.0,0.0,72,0.00,,,0.00,Wunderground PWS Mod,2017-07-26 00:25:00,
2017-07-25 20:35:00,85.3,75.2,30.08,SE,124,0.0,0.0,72,0.00,,,0.00,Wunderground PWS Mod,2017-07-26 00:35:00,
2017-07-25 20:45:00,85.3,75.2,30.08,ESE,123,0.0,0.0,72,0.00,,,0.00,Wunderground PWS Mod,2017-07-26 00:45:00,
2017-07-25 20:55:00,85.2,75.1,30.08,ESE,123,0.0,0.0,72,0.00,,,0.00,Wunderground PWS Mod,2017-07-26 00:55:00,
2017-07-25 21:05:00,85.2,75.6,30.08,ESE,123,0.0,0.0,73,0.00,,,0.00,Wunderground PWS Mod,2017-07-26 01:05:00,
2017-07-25 21:10:00,85.1,75.5,30.08,ESE,123,0.0,0.0,73,0.00,,,0.00,Wunderground PWS Mod,2017-07-26 01:10:00,
2017-07-25 21:20:00,85.1,75.5,30.08,SE,124,0.0,0.0,73,0.00,,,0.00,Wunderground PWS Mod,2017-07-26 01:20:00,
2017-07-25 21:25:00,85.2,76.0,30.08,ESE,123,0.0,0.0,74,0.00,,,0.00,Wunderground PWS Mod,2017-07-26 01:25:00,
2017-07-25 21:35:00,85.0,75.8,30.08,SE,124,0.0,0.0,74,0.00,,,0.00,Wunderground PWS Mod,2017-07-26 01:35:00,
2017-07-25 21:45:00,85.0,76.2,30.08,ESE,123,0.0,1.0,75,0.00,,,0.00,Wunderground PWS Mod,2017-07-26 01:45:00,
2017-07-25 21:50:00,85.0,76.2,30.08,ESE,123,0.0,0.0,75,0.00,,,0.00,Wunderground PWS Mod,2017-07-26 01:50:00,
2017-07-25 21:55:00,84.9,76.1,30.08,ESE,123,0.0,0.0,75,0.00,,,0.00,Wunderground PWS Mod,2017-07-26 01:55:00,
2017-07-25 22:05:00,84.8,76.0,30.09,ESE,123,0.0,0.0,75,0.00,,,0.00,Wunderground PWS Mod,2017-07-26 02:05:00,
2017-07-25 22:10:00,84.9,76.5,30.09,ESE,123,0.0,0.0,76,0.00,,,0.00,Wunderground PWS Mod,2017-07-26 02:10:00,
2017-07-25 22:20:00,84.8,76.8,30.09,ESE,123,0.0,0.0,77,0.00,,,0.00,Wunderground PWS Mod,2017-07-26 02:20:00,
2017-07-25 22:25:00,84.7,76.7,30.09,ESE,123,0.0,0.0,77,0.00,,,0.00,Wunderground PWS Mod,2017-07-26 02:25:00,
2017-07-25 22:35:00,84.6,76.6,30.10,ESE,123,0.0,0.0,77,0.00,,,0.00,Wunderground PWS Mod,2017-07-26 02:35:00,
2017-07-25 22:45:00,84.5,76.9,30.10,ESE,123,0.0,0.0,78,0.00,,,0.00,Wunderground PWS Mod,2017-07-26 02:45:00,
2017-07-25 22:50:00,84.4,76.4,30.11,ESE,123,0.0,0.0,77,0.00,,,0.00,Wunderground PWS Mod,2017-07-26 02:50:00,
2017-07-25 23:00:00,84.3,76.7,30.11,ESE,123,0.0,0.0,78,0.00,,,0.00,Wunderground PWS Mod,2017-07-26 03:00:00,
2017-07-25 23:15:00,84.3,77.1,30.11,ESE,123,0.0,0.0,79,0.00,,,0.00,Wunderground PWS Mod,2017-07-26 03:15:00,
2017-07-25 23:20:00,84.2,77.0,30.11,ESE,123,0.0,0.0,79,0.00,,,0.00,Wunderground PWS Mod,2017-07-26 03:20:00,
2017-07-25 23:25:00,84.1,76.9,30.11,ESE,123,0.0,0.0,79,0.00,,,0.00,Wunderground PWS Mod,2017-07-26 03:25:00,
2017-07-25 23:35:00,84.0,76.8,30.11,ESE,123,0.0,0.0,79,0.00,,,0.00,Wunderground PWS Mod,2017-07-26 03:35:00,